Location: Lucerne Valley
(34.4439°N, 116.9669°E)
Time: 12:46:18
(UTC-08:00)

Envisat - Pass Details

Date: 16 October 2017
Orbit: 764 x 766 km, 98.2° (Epoch: 16 December)

Event Time Altitude Azimuth Distance (km) Brightness Sun altitude
Exits shadow 06:04:48 11° 317° (NW) 2,221 5.9 -43.1°
Drops below altitude 10° 06:05:04 10° 319° (NW) 2,306 6.0 -43.1°
Sets 06:07:47 0° 333° (NNW) 3,237 6.8 -43.6°
